New Delhi, India

11:39 AM IST on April 30, 2017 (GMT +0530)
Indira Gandhi International

Weather History for VIDP - July, 2013

Change the Weather History Date:

Friday, July 5, 2013

  Actual Average Record
Temperature  
Mean Temperature 90 °F -  
Max Temperature 96 °F 93 °F 105 °F (2012)
Min Temperature 84 °F 80 °F 75 °F (2003)
Cooling Degree Days 25    
Growing Degree Days 40 (Base 50)    
Moisture  
Dew Point 78 °F    
Average Humidity 72    
Maximum Humidity 89    
Minimum Humidity 49    
Precipitation  
Precipitation 0.00 in - - ()
Sea Level Pressure  
Sea Level Pressure 29.50 in    
Wind  
Wind Speed 8 mph ()    
Max Wind Speed 14 mph    
Max Gust Speed -    
Visibility 1.7 miles    
Events      
Averages and records for this station are not official NWS values.
T = Trace of Precipitation, MM = Missing Value Source: Averaged Metar Reports

Daily Weather History Graph

Daily Weather History Graph

Search for Another Location

Airport or City:

Trip Planner

Search our weather history database for the weather conditions in past years. The results will help you decide how hot, cold, wet, or windy it might be!

Date:

Astronomy

Jul. 05, 2013 Rise Set
Actual Time 5:28 AM IST 7:23 PM IST
Civil Twilight 5:02 AM IST 7:49 PM IST
Nautical Twilight 4:29 AM IST 8:22 PM IST
Astronomical Twilight 3:55 AM IST 8:56 PM IST
Moon 3:02 AM IST (7/5) 4:59 PM IST (7/5)
Length of Visible Light 14h 47m
Length of Day
13h 54m
Waning Crescent, 8% of the Moon is Illuminated
Jul 5
Waning Crescent
Jul 8
New
Jul 16
First Quarter
Jul 22
Full
Jul 29
Last Quarter

Hourly Weather History & Observations

Time (IST) Temp. Heat Index Dew Point Humidity Pressure Visibility Wind Dir Wind Speed Gust Speed Precip Events Conditions
12:00 AM 86.0 °F 99.3 °F 78.8 °F 79% 29.53 in 1.7 mi ESE 8.1 mph - N/A   Scattered Clouds
12:30 AM 86.0 °F 99.3 °F 78.8 °F 79% 29.50 in 1.7 mi ESE 8.1 mph - N/A   Scattered Clouds
1:00 AM 86.0 °F 99.3 °F 78.8 °F 79% 29.50 in 1.7 mi ESE 6.9 mph - N/A   Scattered Clouds
1:30 AM 86.0 °F 99.3 °F 78.8 °F 79% 29.50 in 1.7 mi ESE 8.1 mph - N/A   Scattered Clouds
2:00 AM 86.0 °F 99.3 °F 78.8 °F 79% 29.50 in 1.7 mi ESE 6.9 mph - N/A   Scattered Clouds
2:30 AM 86.0 °F 101.9 °F 80.6 °F 84% 29.50 in 1.6 mi ESE 6.9 mph - N/A   Mostly Cloudy
3:00 AM 86.0 °F 101.9 °F 80.6 °F 84% 29.50 in 1.6 mi ESE 6.9 mph - N/A   Mostly Cloudy
3:30 AM 86.0 °F 101.9 °F 80.6 °F 84% 29.47 in 1.6 mi ESE 6.9 mph - N/A   Mostly Cloudy
4:00 AM 86.0 °F 101.9 °F 80.6 °F 84% 29.47 in 1.6 mi SE 6.9 mph - N/A   Mostly Cloudy
4:30 AM 86.0 °F 101.9 °F 80.6 °F 84% 29.47 in 1.6 mi ESE 6.9 mph - N/A   Mostly Cloudy
5:00 AM 86.0 °F 101.9 °F 80.6 °F 84% 29.47 in 1.6 mi ESE 5.8 mph - N/A   Scattered Clouds
5:30 AM 86.0 °F 101.9 °F 80.6 °F 84% 29.47 in 1.6 mi SE 5.8 mph - N/A   Scattered Clouds
6:00 AM 84.2 °F 98.3 °F 80.6 °F 89% 29.50 in 1.6 mi SE 6.9 mph - N/A   Scattered Clouds
6:30 AM 84.2 °F 98.3 °F 80.6 °F 89% 29.50 in 1.6 mi ESE 4.6 mph - N/A   Scattered Clouds
7:00 AM 84.2 °F 98.3 °F 80.6 °F 89% 29.50 in 1.6 mi SE 4.6 mph - N/A   Scattered Clouds
7:30 AM 84.2 °F 96.1 °F 78.8 °F 84% 29.50 in 1.6 mi SE 5.8 mph - N/A   Scattered Clouds
8:00 AM 86.0 °F 99.3 °F 78.8 °F 79% 29.50 in 1.6 mi SE 8.1 mph - N/A   Scattered Clouds
9:00 AM 89.6 °F 102.2 °F 77.0 °F 66% 29.53 in 1.6 mi SSE 6.9 mph - N/A   Haze
9:30 AM 89.6 °F 98.2 °F 73.4 °F 59% 29.53 in 1.6 mi SSE 5.8 mph - N/A   Haze
10:00 AM 91.4 °F 100.1 °F 73.4 °F 55% 29.53 in 1.7 mi SSE 6.9 mph - N/A   Haze
10:30 AM 91.4 °F 100.1 °F 73.4 °F 55% 29.53 in 1.7 mi SSE 6.9 mph - N/A   Haze
11:00 AM 93.2 °F 105.0 °F 75.2 °F 56% 29.53 in 1.7 mi SE 6.9 mph - N/A   Haze
12:00 PM 95.0 °F 107.4 °F 75.2 °F 53% 29.53 in 1.9 mi East 6.9 mph - N/A   Haze
12:30 PM 93.2 °F 102.4 °F 73.4 °F 52% 29.53 in 1.9 mi ESE 9.2 mph - N/A   Haze
1:00 PM 93.2 °F 105.0 °F 75.2 °F 56% 29.50 in 1.9 mi East 9.2 mph - N/A   Haze
1:30 PM 93.2 °F 102.4 °F 73.4 °F 52% 29.50 in 1.9 mi East 11.5 mph - N/A   Haze
2:00 PM 96.8 °F 109.6 °F 75.2 °F 50% 29.50 in 1.9 mi East 10.4 mph - N/A   Haze
2:30 PM 96.8 °F 109.6 °F 75.2 °F 50% 29.50 in 1.9 mi ESE 12.7 mph - N/A   Haze
3:00 PM 95.0 °F 104.5 °F 73.4 °F 49% 29.47 in 1.9 mi East 11.5 mph - N/A   Haze
3:30 PM 93.2 °F 107.2 °F 77.0 °F 59% 29.47 in 1.9 mi East 13.8 mph - N/A   Haze
4:00 PM 91.4 °F 107.2 °F 78.8 °F 66% 29.47 in 1.6 mi East 12.7 mph - N/A   Haze
4:30 PM 89.6 °F 104.7 °F 78.8 °F 70% 29.47 in 1.6 mi East 12.7 mph - N/A   Haze
5:00 PM 89.6 °F 104.7 °F 78.8 °F 70% 29.47 in 1.6 mi East 12.7 mph - N/A   Haze
5:30 PM 89.6 °F 104.7 °F 78.8 °F 70% 29.47 in 1.6 mi East 11.5 mph - N/A   Haze
6:00 PM 89.6 °F 104.7 °F 78.8 °F 70% 29.47 in 1.6 mi East 12.7 mph - N/A   Haze
6:30 PM 89.6 °F 102.2 °F 77.0 °F 66% 29.47 in 1.6 mi East 11.5 mph - N/A   Haze
7:00 PM 89.6 °F 104.7 °F 78.8 °F 70% 29.47 in 1.6 mi East 11.5 mph - N/A   Haze
7:30 PM 89.6 °F 104.7 °F 78.8 °F 70% 29.50 in 1.6 mi East 11.5 mph - N/A   Haze
8:00 PM 87.8 °F 102.5 °F 78.8 °F 75% 29.50 in 1.6 mi East 11.5 mph - N/A   Haze
8:30 PM 87.8 °F 102.5 °F 78.8 °F 75% 29.53 in 1.4 mi East 10.4 mph - N/A   Haze
9:00 PM 87.8 °F 102.5 °F 78.8 °F 75% 29.53 in 1.4 mi East 10.4 mph - N/A   Haze
9:30 PM 87.8 °F 102.5 °F 78.8 °F 75% 29.53 in 1.4 mi East 12.7 mph - N/A   Haze
10:00 PM 87.8 °F 102.5 °F 78.8 °F 75% 29.53 in 1.4 mi ESE 12.7 mph - N/A   Haze
10:30 PM 87.8 °F 104.9 °F 80.6 °F 79% 29.56 in 1.7 mi ESE 11.5 mph - N/A   Haze
11:00 PM 86.0 °F 99.3 °F 78.8 °F 79% 29.56 in 1.7 mi ESE 11.5 mph - N/A   Scattered Clouds
11:30 PM 86.0 °F 99.3 °F 78.8 °F 79% 29.56 in 1.7 mi ESE 11.5 mph - N/A   Scattered Clouds